C/2017 T2 ( PanSTARRS )

Japanese version
Home page
Updated on December 9, 2019

---------------------------------------------------------------------

* Profile

Discovery Date October 2, 2017
Magnitude 19.9 mag
Discoverer Pan-STARRS 1 telescope (Haleakala)

* Pictures

* Orbital Elements

Epoch 2020 Apr. 21.0 TT = JDT 2458960.5
T 2020 May 4.95169 TT                                   Williams
q   1.6150978            (2000.0)            P               Q
z  +0.0002300      Peri.   92.99451     -0.50995993     -0.40634689
 +/-0.0000006      Node    64.37797     -0.16278156     -0.81987842
e   0.9996285      Incl.   57.23054     +0.84465557     -0.40333804
From 1703 observations 2017 Sept. 15-2019 Nov. 4, mean residual 0".4.

* Finding Charts

* Magnitudes Graph

        m1 = 5.0 + 5 log d + 9.5 log r

---------------------------------------------------------------------

The orbital elements are published on M.P.E.C. 2019-V116.
The charts are made with StellaNavigator Ver.10 (AstroArts).
The magnitudes graphs are made with Comet for Windows.

---------------------------------------------------------------------

Copyright(C) Seiichi Yoshida (comet@aerith.net). All rights reserved.